Location: Skalnate Pleso
(49.1889°N, 20.2450°E)
Time: 18:12:01
(UTC+01:00)

Envisat - Visible Passes

Search period start: 20 January 2020 00:00
Search period end: 30 January 2020 00:00
Orbit: 764 x 766 km, 98.1° (Epoch: 20 January)

Date Brightness Start Highest point End Pass type
(mag) Time Alt. Az. Time Alt. Az. Time Alt. Az.
20 Jan 5.7 05:19:04 10° NE 05:22:52 21° E 05:26:39 10° SE visible
20 Jan 4.9 18:16:40 10° SSW 18:21:10 31° W 18:25:41 10° NNW visible
21 Jan 3.4 06:20:27 10° NNE 06:25:33 68° ESE 06:30:36 10° S visible
21 Jan 3.5 17:39:10 10° S 17:44:11 63° WSW 17:49:16 10° NNW visible
22 Jan 4.9 05:43:59 10° NNE 05:48:36 33° E 05:53:10 10° SSE visible
22 Jan 3.0 17:02:23 10° SSE 17:07:25 66° ENE 17:12:29 10° N visible
22 Jan 5.7 18:43:18 10° SW 18:46:55 19° W 18:50:32 10° NW visible
23 Jan 6.0 05:08:10 10° NE 05:11:26 17° E 05:14:41 10° SE visible
23 Jan 3.0 06:45:57 10° N 06:51:02 75° WNW 06:56:07 10° SSW visible
23 Jan 4.5 18:05:05 10° SSW 18:09:48 38° W 18:14:33 10° NNW visible
24 Jan 3.9 06:09:13 10° NNE 06:14:13 55° E 06:19:12 10° S visible
24 Jan 3.2 17:27:48 10° S 17:32:53 78° WSW 17:38:00 10° NNW visible
24 Jan 6.3 19:11:08 10° WSW 19:12:46 11° W 19:14:24 10° WNW visible
25 Jan 5.2 05:32:53 10° NE 05:37:13 27° E 05:41:31 10° SSE visible
25 Jan 3.1 16:51:14 10° SE 16:56:09 53° ENE 17:01:07 10° N visible
25 Jan 5.4 18:31:27 10° SW 18:35:29 24° W 18:39:34 10° NW visible
26 Jan 6.2 04:57:29 10° NE 05:00:00 14° E 05:02:29 10° ESE visible
26 Jan 3.1 06:34:38 10° NNE 06:39:45 89° ESE 06:44:51 10° SSW visible
26 Jan 4.1 17:53:33 10° S 17:58:27 47° W 18:03:22 10° NNW visible
27 Jan 4.3 05:57:59 10° NNE 06:02:53 44° E 06:07:44 10° S visible
27 Jan 3.0 17:16:30 10° SSE 17:21:35 86° ENE 17:26:42 10° NNW visible
27 Jan 6.1 18:58:35 10° WSW 19:01:18 14° W 19:04:02 10° NW visible
28 Jan 5.6 05:21:50 10° NE 05:25:49 22° E 05:29:45 10° SE visible
28 Jan 5.1 18:19:43 10° SSW 18:24:06 29° W 18:28:31 10° NNW visible
29 Jan 6.4 04:47:22 10° ENE 04:48:31 11° E 04:49:41 10° E visible
29 Jan 3.3 06:23:20 10° NNE 06:28:27 74° ESE 06:33:32 10° S visible
29 Jan 3.7 17:42:06 10° S 17:47:06 58° W 17:52:08 10° NNW visible
